Regional Weather Roundup
Issued by NWS Sioux Falls, SD

Home | Current Version | Previous Version | Graphics & Text | Print | Product List | Glossary Off
Versions: 1 2 3 4 5 6 7 8 9 10 11 12 13 14 15 16 17 18 19 20 21 22 23 24 25 26 27 28 29 30 31 32 33 34 35 36 37 38 39 40 41 42 43 44 45 46 47 48 49 50

850
ASUS43 KFSD 121702
RWRFSD

WEATHER ROUNDUP FOR SE SOUTH DAKOTA/SW MINNESOTA/NW IOWA
NATIONAL WEATHER SERVICE SIOUX FALLS SD
1100 AM CST FRI FEB 12 2016

NOTE: "FAIR" INDICATES FEW OR NO CLOUDS BELOW 12,000 FEET WITH NO
SIGNIFICANT WEATHER AND OR OBSTRUCTIONS TO VISIBILITY.


SDZ038>040-050-052>070-121800-
SOUTHEAST SOUTH DAKOTA

CITY           SKY/WX    TMP DP  RH WIND       PRES   REMARKS
BROOKINGS      SUNNY      7  -4  60 N17       30.50R WCI -12
CHAMBERLAIN    NOT AVBL
HURON          SUNNY     13   4  67 N16       30.59R WCI  -3
MADISON        FAIR       9   0  66 N17       30.50R WCI -10
MITCHELL       MOSUNNY   15   7  70 N17       30.58R WCI  -1
SIOUX FALLS    MOSUNNY   11  -1  58 N18       30.52R WCI  -7
WINNER         CLOUDY    23  14  68 NE8       30.51R WCI  14
YANKTON        CLOUDY    18   9  68 N20G25    30.54R WCI   1
$$

MNZ071-072-080-081-089-090-097-098-121800-
SOUTHWEST MINNESOTA

CITY           SKY/WX    TMP DP  RH WIND       PRES   REMARKS
FAIRMONT       SUNNY      9   0  66 NW20G29   30.43R WCI -11
JACKSON        SUNNY     10   0  61 NW21G29   30.44R WCI  -9
LUVERNE        LGT SNOW  12   0  57 N13G24    30.51R VSB 1   WCI  -3
MARSHALL       SUNNY      6  -1  73 N23       30.52R WCI -15
MONTEVIDEO     SUNNY      7  -4  61 N18G29    30.55R WCI -12
PIPESTONE      SUNNY     10  -6  48 N12G21    30.47R WCI  -4
REDWOOD FALLS  SUNNY      8  -3  61 NW18G28   30.50R WCI -11
TRACY          SUNNY      8   0  68 NW16G28   30.50R HAZE    WCI  -9
WINDOM         SUNNY      7   1  78 NW23      30.44R HAZE    WCI -14
WORTHINGTON    SUNNY      9  -2  61 N17       30.46R WCI -10
$$

IAZ001>003-012>014-020>022-031-032-NEZ013-014-SDZ071-121800-
NORTHWEST IOWA

CITY           SKY/WX    TMP DP  RH WIND       PRES   REMARKS
ESTHERVILLE    SUNNY      9   0  67 NW23      30.45R WCI -11
SIOUX CITY     MOSUNNY   21  11  65 N15       30.53R WCI   8
SPENCER        SUNNY     11   0  61 N26G35    30.46R BLWGSNOWWCI -10
STORM LAKE     MOSUNNY   12   7  79 N18G25    30.46R WCI  -5
$$

ABBREVIATIONS USED IN REMARKS
   TC - TEMPERATURE IN CELSIUS
  WCI - WIND CHILL INDEX
   HX - HEAT INDEX
  VSB - VISIBILITY





USA.gov is the U.S. government's official web portal to all federal, state and local government web resources and services.